Погода в Керисюрье

Россия / Республика Карелия     61°44′37″N   31°06′27″E
темп.,
°C
ветер,
м/с
пор.,
м/с
влажн.,
%
обл.,
%
осадки,
мм/ч
давл.,
гПа
погр.,
м
7 мая, пт
пт700:00+1з4798100 0.1 991476
03:00−1зюз499575 0.1 993579
06:000зюз499465 0.1 995681
09:00+1зюз4783100 0.1 997803
12:00+3юз3581100 0.0 1000859
15:00+3юз3585100 0.0 1002633
18:00+3ю2391100 0.1 1003297
21:00+2ююв2497100 0.1 1004132
8 мая, сб
сб800:00+2вюв2599100 0.0 1005131
03:00+1юв279789 0.0 1004163
06:00+2вюв1310068 0.2 100499
09:00+5всв1192100 0.2 1004278
12:00+6ссв2385100 0.2 1003709
15:00+6с3587100 0.8 1003732
18:00+5ссз4789100 0.6 1004616
21:00+3сз3891100 0.6 1005447
9 мая, вс
вс900:00+2сз3992100 0.0 1006304
03:00+2ссз4129152 0.8 1006537
06:00+1зсз25905 0.0 1009122
09:00+6зсз357426 0.0 1011474
12:00+8з35555 0.2 10121646
15:00+9юз464772 0.2 10131782
18:00+7ююз466339 0.0 1014831
21:00+4ю388298 0.1 1015183
10 мая, пн
пн1000:00+4юз41079100 0.0 1016288
03:00+3ююз2686100 0.0 1017149
06:00+4ю3885100 0.0 1017516
09:00+4ююв41098100 1.7 1017376
12:00+5ю41098100 1.1 1017313
15:00+7ю31098100 2.3 1017273
18:00+11юз31390100 0.0 1018550
21:00+9ююз41488100 0.0 1016351
11 мая, вт
вт1100:00+8ююз41391100 0.0 1019257
03:00+7ю31294100 0.0 1019252
06:00+7ююз3119523 0.0 1019258
09:00+9ю4108986 0.0 1020318
12:00+12ю51077100 0.0 1020458
15:00+13ююз4970100 0.0 1021400
18:00+13ююз3873100 0.0 1021364
21:00+11ю238379 0.0 102248